Tracking 19286 objects as of 18-Nov-2018
HD Live streaming from Space Station
objects crossing your sky now

CARTOSAT-1

Track CARTOSAT-1 now!
10-day predictions
CARTOSAT-1 is classified as:


NORAD ID: 28649
Int'l Code: 2005-017A
Perigee: 623.5 km
Apogee: 627.5 km
Inclination: 97.8 °
Period: 97.1 minutes
Semi major axis: 6996 km
RCS: 4.7551 m2 (large)
Launch date: May 5, 2005
Source: India (IND)
Launch site: SRIHARIKOTA (SRI)

Remote sensing and mapping, land use, forest cover, river flow assessments.
aabbcc
Your satellite tracking list
Your tracking list is empty




NASA's NSSDC Master Catalog

Two Line Element Set (TLE):
1 28649U 05017A   18322.05606111  .00000115  00000-0  20331-4 0  9998
2 28649  97.8090  31.6402 0002925 124.5357 235.6130 14.83479844732908
Source of the keplerian elements: AFSPC